Regional Weather Roundup
Issued by NWS

Home | Current Version | Previous Version | Graphics & Text | Print | Product List | Glossary On
Versions: 1 2 3 4 5 6 7 8 9 10 11 12 13 14 15 16 17 18 19 20 21 22 23 24 25 26 27 28 29 30 31 32 33 34 35 36 37 38 39 40 41 42 43 44 45 46 47 48 49 50
520
ASUS43 KMKX 251521
RWRWI

WISCONSIN REGIONAL WEATHER ROUNDUP
NATIONAL WEATHER SERVICE MILWAUKEE/SULLIVAN WI
1000 AM CDT SUN JUN 25 2017

NOTE: "FAIR" INDICATES FEW OR NO CLOUDS BELOW 12,000 FEET WITH NO
SIGNIFICANT WEATHER AND/OR OBSTRUCTIONS TO VISIBILITY.

WIZ001-002-006>008-014>016-023>028-251600-
NORTHWEST WISCONSIN

CITY           SKY/WX    TMP DP  RH WIND       PRES   REMARKS
SUPERIOR ARPT  NOT AVBL
ASHLAND        CLOUDY    56  54  93 SW5       30.04S
HAYWARD        CLOUDY    58  51  78 CALM      30.05S
SIREN          CLOUDY    58  52  80 W8        30.07S
CUMBERLAND     CLOUDY    55  50  82 W12       30.08S
RICE LAKE      CLOUDY    57  51  81 W8        30.09S
CHETEK         CLOUDY    56  52  84 W7        30.08S
LADYSMITH      CLOUDY    56  52  84 W9        30.08S
EAU CLAIRE     CLOUDY    59  50  72 W13       30.08S
MENOMONIE      CLOUDY    58  50  76 W9        30.10S
NEW RICHMOND   CLOUDY    56  48  76 W12       30.11S
OSCEOLA        DRIZZLE   56  51  84 W10       30.14R
$$

WIZ003>005-009-010-017-018-251600-
NORTH CENTRAL WISCONSIN

CITY           SKY/WX    TMP DP  RH WIND       PRES   REMARKS
MANITOWISH WTR CLOUDY    57  54  89 W9        30.02F
ARBOR VITAE    CLOUDY    57  52  83 W3        30.02S
WOODRUFF       CLOUDY    57  52  83 W3        30.02S
RHINELANDER    CLOUDY    57  52  83 W10       30.03S
EAGLE RIVER    CLOUDY    56  49  76 NW5       30.02S
LAND O LAKES   CLOUDY    56  50  79 NW6       30.04S
PHILLIPS       CLOUDY    54  52  93 W5        30.04S
TOMAHAWK       NOT AVBL
MEDFORD        CLOUDY    54  50  86 W12       30.05S
MERRILL        CLOUDY    56  52  85 W7        30.05S
$$

WIZ029-030-035-036-043>047-251600-
CENTRAL WISCONSIN

CITY           SKY/WX    TMP DP  RH WIND       PRES   REMARKS
WAUSAU         CLOUDY    56  49  77 NW13      30.04R
MOSINEE        CLOUDY    57  52  82 W12       30.07R
MARSHFIELD     CLOUDY    56  50  80 W8        30.07S
STEVENS POINT  PTSUNNY   56  49  78 W8        30.06S
WAUPACA        MOSUNNY   64  54  69 W7        30.04S
WAUTOMA        CLOUDY    60  50  69 W16       30.07S
WISC RAPIDS    CLOUDY    56  50  80 W9        30.09R
CAMP DOUGLAS   CLOUDY    59  52  77 W13G20    30.09S
$$

WIZ011>013-019>022-031-037>040-048>050-251600-
NORTHEAST WISCONSIN

CITY           SKY/WX    TMP DP  RH WIND       PRES   REMARKS
ANTIGO         CLOUDY    58  52  80 NW14G20   30.03S
SHAWANO        CLOUDY    64  54  68 NW8       30.01S
OCONTO         CLOUDY    60  51  71 NW5       30.00S
STURGEON BAY     N/A     58  51  78 NW9         N/A
GREEN BAY      PTSUNNY   63  53  70 NW13      30.01S
MANITOWOC      CLOUDY    62  50  64 NW16G23   30.01R
APPLETON       PTSUNNY   57  48  72 NW9       30.02R
CLINTONVILLE   CLOUDY    61  50  67 W8        30.02F
OSHKOSH        SUNNY     63  52  67 W12G18    30.03S
$$

WIZ032>034-041-042-053>061-251600-
SOUTHWEST WISCONSIN

CITY           SKY/WX    TMP DP  RH WIND       PRES   REMARKS
LA CROSSE      CLOUDY    63  52  67 W10       30.12R
SPARTA         CLOUDY    57  51  80 W10       30.11S
VIROQUA        CLOUDY    55  52  88 W6        30.13R
BOSCOBEL       PTSUNNY   62  49  62 W10       30.13S
PRAIRIE DU CHI PTSUNNY   59  47  63 W12G17    30.14S
PLATTEVILLE    PTSUNNY   62  52  71 NW13      30.14F
$$

WIZ056-057-062-063-064-067-068-251600-
SOUTH CENTRAL WISCONSIN

CITY           SKY/WX    TMP DP  RH WIND       PRES   REMARKS
REEDSBURG      CLOUDY    59  51  74 W15       30.10S
BARABOO/DELLS  CLOUDY    58  48  70 W8G17     30.10S
LONE ROCK      CLOUDY    61  48  62 NW15      30.12R
MINERAL POINT  CLOUDY    61  52  72 W13G18    30.13S
MADISON        PTSUNNY   60  52  74 W9        30.09S
MIDDLETON      MOSUNNY   62  52  70 W14       30.10F
WATERTOWN      MOSUNNY   62  53  74 W12       30.08R
MONROE         PTSUNNY   61  48  63 W15G24    30.12S
JANESVILLE     MOSUNNY   64  50  59 NW14G20   30.10S
$$

WIZ051-052-058>065-066-070>072-251600-
SOUTHEAST WISCONSIN

CITY           SKY/WX    TMP DP  RH WIND       PRES   REMARKS
MILWAUKEE      MOSUNNY   65  49  56 W15G21    30.06S
WAUKESHA       MOSUNNY   61  48  63 W13       30.08S
MILWAUKEE/TIMM MOSUNNY   64  46  52 W14G22    30.06S
RACINE         SUNNY     65  49  56 W9G20     30.08S
KENOSHA        SUNNY     65  52  62 W13       30.08S
FOND DU LAC    SUNNY     64  49  57 W16       30.04S
SHEBOYGAN      SUNNY     64  54  69 W15       30.01S
WEST BEND      MOSUNNY   63  50  63 W15G21    30.04S
JUNEAU         MOSUNNY   60  51  71 W6        30.08R
$$

LSZ147-162-251600-
LAKE SUPERIOR

STATION/POSITION TIME  TEMP    WIND        PRES    WAVE
                       AIR SEA DIR/SP/G            HT/PER
                 (UTC) (F)     (DEG/KT/KT) (MB)    (FT/S)
W MID LAKE BUOY  1450   45 39  300/  6/  8 1016.9R   0
DEVILS ISLAND    1500   52     230/  5/  6 1017.0R
SAXON HARBOR     1440   57     250/  1/  4 1016.6R
$$

LMZ867-665-643>646-251600-
LAKE MICHIGAN

STATION/POSITION TIME  TEMP    WIND        PRES    WAVE
                       AIR SEA DIR/SP/G            HT/PER
                 (UTC) (F)     (DEG/KT/KT) (MB)    (FT/S)
CHAMBERS ISLAND  1440   60     250/  5/  7 1014.9R
S GREEN BAY BUOY 1500   59     300/ 10/ 12 1015.5
N MID LAKE BUOY  1450   56 57  330/  6/  8 1015.3R   1/ 3
NORTHPORT PIER   1440   59     310/  9/ 13 1014.9R
KEWAUNEE LAKESHO 1454   58     300/  8/ 13 1015.3R
SHEBOYGAN LAKESH 1500   62     300/ 16/ 21 1016.0R
PORT WASHINGTON  1440   65     310/  8/ 17 1017.6S
ATWATER BUOY     1409   61 58  250/ 14/ 17 1017.6R
MILWAUKEE LAKESH 1500   63     280/ 10/ 14   N/A
S MID LAKE BUOY  1450   59 61  290/ 16/ 17 1018.0R   3/ 5
KENOSHA   LAKESH 1500   63     260/ 10/ 19 1018.3
$$

TC  - TEMPERATURE IN CELSIUS
VSB - VISIBILITY IN STATUTE MILES
WCI - WIND CHILL INDEX
HX  - HEAT INDEX





USA.gov is the U.S. government's official web portal to all federal, state and local government web resources and services.